Home > Time Zones > World Clock > Weather > Japan > Tokyo > Past weeks

Flag for Japan Weather past 2 weeks in Tokyo, Japan

Now
76 °F

Overcast.


Feels Like: 78 °F
Forecast: 65 / 70 °F
Wind: 5 mph from Southwest

Location: Tokyo

Current Time: Sep 30, 2014 at 9:39:21 PM

Latest Report: Sep 30, 2014 at 9:00 PM


Visibility: 13 mi

Pressure: 29.96 "Hg

Humidity: 71%

Dew point: 66 °F

Location of TokyoLocation

Historic Weather in Tokyo — Graph

°F

Tokyo temperature yesterday

Maximum temperature yesterday: 82 °F (at 4:00 PM)
Minimum temperature yesterday: 69 °F (at 6:00 AM)
Average temperature yesterday: 74 °F

Past Weeks' High & Low Weather Summary

 TemperatureHumidityPressure
High84 °F (Sep 16, 12:00 PM)92% (Sep 24, 7:00 PM)30.21 "Hg (Sep 24, 7:00 PM)
Low62 °F (Sep 21, 6:00 AM)29% (Sep 18, 7:00 PM)29.53 "Hg (Sep 25, 2:00 PM)
Average73 °F62%29.94 "Hg
* Reported Sep 15 8:00 PM — Sep 30 8:00 PM, Tokyo, Weather by CustomWeather, © 2014

Note: Actual official high and low records may vary slightly from our data, if they occured in-between our weather recording intervals... More about our weather records

Advertising

Tokyo weather history for previous 24 hours

 ConditionsComfort  
Time TempWeatherWind HumidityBarometerVisibility
8:00 PM
Sep 30
77 °FWarm.5 mph69%29.95 "HgN/A
7:00 PM79 °FWarm.3 mph61%29.93 "HgN/A
6:00 PM80 °FPassing clouds.3 mph52%29.90 "Hg9 mi
5:00 PM80 °FWarm.5 mph50%29.88 "HgN/A
4:00 PM82 °FWarm.7 mph47%29.87 "HgN/A
3:00 PM83 °FPassing clouds.6 mph48%29.85 "Hg9 mi
2:00 PM82 °FPleasantly warm.3 mph38%29.85 "HgN/A
1:00 PM82 °FWarm.5 mph44%29.85 "HgN/A
12:00 PM83 °FPassing clouds.3 mph46%29.87 "Hg9 mi
11:00 AM78 °FWarm.2 mph52%29.89 "HgN/A
10:00 AM79 °FWarm.2 mph58%29.89 "HgN/A
9:00 AM75 °FSunny.2 mph63%29.90 "Hg9 mi
8:00 AM73 °FMild.2 mph63%29.90 "HgN/A
7:00 AM71 °FMild.2 mph68%29.89 "HgN/A
6:00 AM70 °FOvercast.5 mph69%29.89 "Hg6 mi
5:00 AM70 °FMild.2 mph69%29.86 "HgN/A
4:00 AM71 °FMild.2 mph63%29.85 "HgN/A
3:00 AM71 °FOvercast.5 mph63%29.85 "Hg12 mi
2:00 AM72 °FMild.6 mph66%29.85 "HgN/A
1:00 AM71 °FMild.5 mph66%29.85 "HgN/A
12:00 AM71 °FMild.6 mph66%29.84 "HgN/A
11:00 PM
Sep 29
71 °FMild.8 mph66%29.84 "HgN/A
10:00 PM72 °FMild.10 mph64%29.83 "HgN/A
9:00 PM72 °FPassing clouds.8 mph61%29.83 "Hg16 mi
Weather by CustomWeather, © 2014

See weather overviewHow to use our weather pages